Regional Weather Roundup
Issued by NWS Columbia, SC

Home | Current Version | Previous Version | Text Only | Print | Product List | Glossary On
Versions: 1 2 3 4 5 6 7 8 9 10 11 12 13 14 15 16 17 18 19 20 21 22 23 24 25 26 27 28 29 30 31 32 33 34 35 36 37 38 39 40 41 42 43 44 45 46 47 48 49 50
000
ASUS42 KCAE 040210
RWRCAE
REGIONAL WEATHER ROUNDUP
NATIONAL WEATHER SERVICE COLUMBIA SC
1000 PM EDT MON AUG 03 2015

NOTE: "FAIR" INDICATES FEW OR NO CLOUDS BELOW 12,000 FEET WITH NO
SIGNIFICANT WEATHER AND/OR OBSTRUCTIONS TO VISIBILITY.

NOT ALL STATIONS ARE QUALITY CONTROLLED BY THE NATIONAL
WEATHER SERVICE. USE DATA WITH CAUTION...ESPECIALLY
DEWPOINT OBSERVATIONS.

SCZ001>056-GAZ040-063>065-077-040300-
...UPSTATE SOUTH CAROLINA...

CITY           SKY/WX    TMP DP  RH WIND       PRES   REMARKS
ANDERSON       CLEAR     80  64  58 CALM      29.92R
CLEMSON        CLEAR     87  59  38 W5        29.94R
GREENVILLE     CLEAR     86  62  44 NW3       29.94R
GREENWOOD      CLEAR     81  71  71 SE7       29.94R
GREER          CLEAR     80  64  58 SE3       29.92R
ROCK HILL      CLEAR     82  70  66 SE5       29.94R
LAURENS        CLEAR     81  75  83 SE5       29.93R


...CENTRAL SOUTH CAROLINA...

CITY           SKY/WX    TMP DP  RH WIND       PRES   REMARKS
COLUMBIA APT   PTCLDY    80  71  74 SE6       29.93R
COLUMBIA OWENS CLEAR     79  71  76 SE3       29.94R
DARLINGTON     CLEAR     79  68  69 SE5       29.97R
FLORENCE       PTCLDY    79  74  84 CALM      29.95R
MCENTIRE ANGB  PTCLDY    75  72  91 E3        29.94R
ORANGEBURG     MOCLDY    77  73  87 NE5       29.93R
SUMTER SHAW    CLEAR     78  72  80 SE3       29.92R
CAMDEN         FAIR      79  72  78 CALM      29.95R


...EASTERN AND COASTAL SOUTH CAROLINA...

CITY           SKY/WX    TMP DP  RH WIND       PRES   REMARKS
N MYRTLE BCH   PTCLDY    80  71  74 S8        29.96R
MARION         FAIR      77  72  83 CALM      29.95R
HARTSVILLE     FAIR      77  70  78 CALM      29.95R
FLORENCE       PTCLDY    79  74  84 CALM      29.95R
DARLINGTON     CLEAR     79  68  69 SE5       29.97R
CHARLESTON APT MOCLDY    80  74  81 SE9G18    29.91R
MOUNT PLEASANT FAIR      75  75 100 CALM      29.91S FOG
BEAUFORT       PTCLDY    80  76  87 SE5       29.89R


...EASTERN GEORGIA...

CITY           SKY/WX    TMP DP  RH WIND       PRES   REMARKS
AUGUSTA BUSH F CLEAR     76  73  91 SE3       29.91R
AUGUSTA DANIEL CLEAR     79  72  79 SE5       29.93R
THOMSON        CLEAR     82  76  82 SE3       29.96R
WASHINGTON     FAIR      84  77  79 CALM      29.92R
SYLVANIA       CLEAR     78  78  98 NE5       29.91R
STATESBORO     CLEAR     77  32  19 CALM      29.90R
SAVANNAH       CLOUDY    78  75  90 NE6       29.89R


...SOUTHERN NORTH CAROLINA...

CITY           SKY/WX    TMP DP  RH WIND       PRES   REMARKS
CHARLOTTE      CLEAR     83  68  60 S9        29.94R
MONROE         CLEAR     80  68  66 VRB5      29.94R
WADESBORO      CLEAR     80  67  63 S5        29.93R
ROCKINGHAM     CLEAR     79  68  69 S9        29.95R
RUTHERFORDTON  CLEAR     80  64  57 CALM      29.95R
ASHEVILLE      CLEAR     76  57  51 N6        30.02R

$$


USA.gov is the U.S. government's official web portal to all federal, state and local government web resources and services.